Overview Statistics Trail Chart Weather Telemetry Raw packets
 

This is the latest recevied weather packets stored in our database for station/object KF0WJA. If no packets are shown the sender has not sent any weather packets the latest 10 day(s).

<< 25 26 27 28 29 30 31 >>
Time Temp. Humidity Pressure Rain* Wind** Luminosity Snow
1788488990 29.44° C 63% 1014.6 hPa 0 mm - 0 W/m² -
1788488686 30° C 62% 1014.6 hPa 0 mm - 0 W/m² -
1788488383 30° C 62% 1014.4 hPa 0 mm - 0 W/m² -
1788488079 30° C 61% 1014.4 hPa 0 mm - 0 W/m² -
1788487779 30° C 61% 1014.2 hPa 0 mm - 0 W/m² -
1788487474 30° C 61% 1014.3 hPa 0 mm - 0 W/m² -
1788487172 30° C 60% 1014.2 hPa 0 mm - 0 W/m² -
1788486868 30° C 60% 1014.2 hPa 0 mm - 0 W/m² -
1788486566 30.56° C 59% 1013.7 hPa 0 mm - 0 W/m² -
1788486262 30.56° C 59% 1013.7 hPa 0 mm - 0 W/m² -
1788485957 30.56° C 59% 1013.7 hPa 0 mm - 0 W/m² -
1788485653 30.56° C 58% 1013.5 hPa 0 mm - 0 W/m² -
1788485349 31.11° C 58% 1013.6 hPa 0 mm - 0 W/m² -
1788485049 31.11° C 57% 1013.6 hPa 0 mm - 0 W/m² -
1788484743 31.11° C 56% 1013.4 hPa 0 mm - 0 W/m² -
1788484438 31.67° C 56% 1013.5 hPa 0 mm - 0 W/m² -
1788484133 31.67° C 55% 1013.5 hPa 0 mm - 0 W/m² -
1788483830 31.67° C 54% 1013.1 hPa 0 mm - 0 W/m² -
1788483524 32.22° C 54% 1013 hPa 0 mm - 0 W/m² -
1788483220 32.22° C 53% 1013.1 hPa 0 mm - 2 W/m² -
1788482915 32.22° C 52% 1013 hPa 0 mm - 5 W/m² -
1788482611 32.78° C 52% 1013.1 hPa 0 mm - 8 W/m² -
1788482312 32.78° C 51% 1013.1 hPa 0 mm - 13 W/m² -
1788482008 33.33° C 50% 1013 hPa 0 mm - 17 W/m² -
1788481702 33.33° C 49% 1013 hPa 0 mm - 23 W/m² -

* Rain latest hour (hover to see other rain measurements)
** Current wind speed in m/s (hover to see current wind gust speed)